Temperature
13 13 13 13 13 13 13 13 12 12 12 12 12 12 12 12 12 12 12 12 11 11 11 11 11 11 11 11 11 11 11 11 11 11 11 11 11 11
13 13 13 13 13 13 13 12 12 12 12 12 12 12 12 11 11 11 11 11 11 11 11 11 11 11 11 11 11 11 11 11 11 11 11 11 10 10
13 13 13 13 13 13 12 12 12 12 12 12 12 11 11 11 11 11 11 11 11 11 11 11 11 11 11 11 11 11 10 10 10 10 10 10 10 10
13 12 12 12 12 12 12 12 12 12 12 12 11 11 11 11 11 11 11 11 11 11 11 11 11 11 11 10 10 10 10 10 10 10 10 10 10 10
12 12 12 12 12 12 12 12 12 12 11 11 11 11 11 11 11 11 11 11 11 11 10 10 10 10 10 10 10 10 10 10 10 10 10 10 10 9
12 12 12 12 12 12 12 12 12 11 11 11 11 11 11 11 11 11 11 11 11 10 10 10 10 10 10 10 10 10 10 10 10 10 9 9 9 9
12 12 12 12 12 12 12 11 11 11 11 11 11 11 11 11 11 10 10 10 10 10 10 10 10 10 10 10 10 10 10 9 9 9 9 9 9 9
12 12 12 12 11 11 11 11 11 11 11 11 11 11 11 11 10 10 10 10 10 10 10 10 10 10 10 10 9 9 9 9 9 9 9 9 9 8
12 12 11 11 11 11 11 11 11 11 11 11 11 11 11 11 10 10 10 10 10 10 10 10 10 10 9 9 9 9 9 9 9 9 9 8 8 8
11 11 11 11 11 11 11 11 11 11 11 10 10 10 10 10 10 10 10 10 9 9 9 9 9 9 9 9 9 9 9 9 8 8 8 8 8 8
11 11 11 11 11 10 10 10 10 10 10 10 10 10 10 10 10 9 9 9 9 9 9 9 9 9 9 9 9 9 8 8 8 8 8 8 8 8
11 11 11 10 10 10 10 10 10 10 10 10 10 10 10 10 9 9 9 9 9 9 9 8 8 8 8 8 8 8 8 8 8 8 8 8 8 8
10 10 10 10 10 10 10 10 10 10 10 10 10 10 10 10 10 9 9 9 9 9 9 8 8 8 8 8 8 8 8 8 8 8 8 8 7 7
10 10 10 10 10 9 9 9 9 9 9 9 9 9 9 10 9 9 9 9 9 8 8 8 8 8 8 7 8 8 8 8 8 8 7 7 7 7
10 10 10 9 9 9 9 9 9 9 9 9 9 9 9 9 9 9 9 9 8 8 8 8 8 8 8 7 7 7 7 7 7 7 7 7 7 7
10 9 9 9 9 9 9 9 8 8 8 8 8 8 8 8 8 8 8 8 8 8 8 8 8 8 7 7 7 7 7 7 7 7 7 7 7 7
9 9 9 8 8 8 8 8 8 8 8 8 8 8 8 8 8 8 8 8 8 8 8 7 7 7 7 7 7 7 7 7 7 7 7 7 7 7
9 9 8 8 8 8 8 8 8 8 8 8 8 8 8 8 8 8 7 7 7 7 7 7 7 7 6 7 7 7 7 7 7 6 6 6 7 7
8 8 8 8 8 8 8 8 8 8 8 7 7 7 7 7 7 7 7 7 7 7 7 7 6 6 6 6 6 7 6 6 6 6 6 6 6 6
8 8 8 8 8 8 8 8 8 7 7 7 7 7 7 7 7 7 7 7 7 7 7 6 6 6 6 6 6 6 6 6 6 6 6 6 6 6
8 8 8 8 8 8 7 7 7 7 7 7 7 7 7 6 6 6 6 6 6 6 6 6 6 6 6 6 6 6 6 6 6 6 5 5 5 6
8 8 7 7 7 7 7 7 7 7 7 7 7 6 6 6 6 6 6 6 6 6 6 6 6 6 6 6 6 6 6 6 6 5 5 5 5 5
7 7 7 7 7 7 7 7 7 7 6 6 6 6 6 6 6 6 6 6 6 6 6 6 5 5 5 5 5 5 5 5 5 5 5 5 5 5
Wind_Speed
2 2 2 1 2 2 3 4 4 2 2 2 1 1 1 3 3 3 2 1 2 2 3 3 3 4 4 4 5 6 5 5 5 5 4 5 5 5
2 2 2 1 2 2 2 2 3 3 2 3 2 2 2 3 3 3 2 2 1 2 2 2 3 4 3 4 4 5 5 4 5 5 5 5 4 4
2 3 3 2 2 2 2 2 2 2 2 2 1 1 1 2 2 2 2 2 1 1 1 1 2 2 2 3 4 4 5 5 5 5 5 5 4 4
3 3 3 2 2 2 2 2 1 2 3 2 1 1 1 2 2 2 1 1 1 1 2 2 1 1 2 2 3 3 4 4 4 4 4 4 4 3
3 3 4 4 3 2 3 2 2 1 2 3 2 1 1 1 1 1 1 0 1 1 1 1 0 0 1 1 2 2 2 2 3 3 3 3 3 2
2 3 4 5 5 4 3 3 2 2 2 2 2 1 1 1 2 1 0 1 1 1 1 1 1 1 1 1 1 1 1 1 1 2 2 2 2 2
2 3 4 5 5 5 4 4 4 3 2 2 2 1 1 2 2 2 2 1 1 1 0 1 1 1 2 3 3 3 2 1 1 1 1 1 1 2
3 3 3 4 5 6 6 6 7 6 5 4 3 4 5 4 3 3 3 2 2 2 1 1 1 2 3 4 5 4 3 3 3 3 2 2 2 1
4 4 3 3 3 2 4 5 6 7 8 7 5 6 6 6 5 4 4 4 4 3 2 2 1 2 4 5 6 6 4 4 4 4 4 4 3 3
4 5 4 4 3 3 3 2 3 4 5 5 6 7 6 6 7 6 6 3 1 1 3 2 2 2 3 4 6 6 6 5 5 5 5 5 4 4
4 4 5 5 5 5 3 3 3 3 4 5 6 6 6 7 7 4 4 3 2 2 2 2 2 1 2 3 5 7 7 7 6 6 5 5 5 4
3 4 6 6 7 7 5 4 5 4 3 2 3 3 3 5 8 7 6 4 3 3 3 3 2 1 1 2 3 4 5 7 7 7 6 6 6 4
4 4 5 7 7 7 6 5 7 5 3 3 2 2 2 3 4 6 7 6 5 4 5 4 3 2 2 2 3 3 4 4 5 6 7 7 7 6
5 4 5 7 6 6 5 5 5 3 2 2 2 3 3 4 4 5 7 7 7 6 7 7 4 4 3 2 3 2 3 4 4 4 5 5 6 8
5 6 6 6 6 5 5 5 4 3 2 3 4 5 4 4 3 3 4 5 5 5 6 7 4 4 4 4 3 3 2 3 4 4 4 4 4 4
3 4 5 5 4 4 4 3 3 4 4 4 4 4 2 2 3 3 3 3 2 3 4 6 7 6 4 4 4 4 3 3 3 3 3 4 5 7
3 1 1 2 2 2 2 3 3 3 4 3 3 3 3 3 4 3 3 3 3 4 3 2 3 4 5 4 4 5 4 3 4 3 3 4 5 6
4 3 4 4 5 5 5 4 4 4 5 4 4 4 4 5 4 3 3 4 5 5 5 3 2 0 1 3 6 6 5 4 3 4 3 4 5 5
4 5 5 6 6 5 5 5 5 5 4 4 5 5 5 5 4 4 4 4 5 5 5 4 4 4 4 5 4 6 5 4 3 3 4 4 6 6
4 5 6 6 5 6 6 5 5 4 4 4 5 5 5 5 5 5 5 6 6 5 5 4 5 7 8 7 4 4 7 6 4 5 4 3 3 5
5 5 5 5 5 5 5 5 5 5 5 5 5 5 5 5 5 6 6 8 7 6 7 7 8 8 4 2 2 3 3 7 7 5 4 3 3 2
5 6 5 5 6 6 6 5 5 5 6 6 6 6 6 6 6 7 6 6 7 7 8 6 3 3 4 6 6 5 4 3 4 7 7 7 4 5
5 5 5 5 6 6 6 6 6 6 6 6 6 6 6 6 6 6 7 7 6 7 6 5 4 4 5 6 6 5 5 4 2 2 4 7 10 11
Wind_Direction
184 157 154 181 164 157 155 157 157 175 240 257 273 270 183 166 168 156 157 150 102 84 66 48 37 36 35 38 42 39 43 49 48 45 49 58 62 71
184 156 159 165 150 139 148 148 146 161 201 230 230 229 189 168 170 161 166 140 116 103 84 57 43 39 41 43 43 41 40 47 52 47 45 50 54 60
187 177 181 159 150 158 144 136 136 142 174 244 238 200 164 170 146 160 172 169 178 141 136 96 55 32 39 52 48 45 43 48 53 48 44 47 51 58
207 189 189 171 169 172 160 168 180 172 165 196 214 193 191 182 163 168 162 182 198 194 157 143 122 42 30 43 47 51 52 52 53 52 45 41 42 46
209 198 195 178 187 194 185 186 192 175 159 167 203 206 189 143 119 139 139 300 204 167 152 150 154 155 28 18 29 42 41 42 44 40 29 26 27 31
209 203 193 185 192 192 192 192 175 146 136 152 179 192 186 169 136 148 206 304 259 180 183 234 239 265 302 309 317 335 350 7 24 18 14 25 31 38
216 213 210 204 202 196 195 189 172 164 158 164 188 196 209 187 195 189 189 230 287 221 206 260 250 267 274 277 273 274 272 262 278 312 330 352 10 16
215 227 227 217 221 217 210 194 178 175 185 186 201 208 219 211 194 183 169 147 256 244 164 260 204 249 256 250 253 255 247 249 256 265 271 274 281 298
209 213 225 230 216 209 215 209 205 202 191 185 198 213 211 206 187 185 188 187 213 211 153 236 246 250 259 257 249 240 239 247 250 256 260 263 264 269
208 203 202 212 215 189 188 195 224 229 218 206 212 219 215 205 192 188 186 179 192 204 160 195 231 251 272 267 250 237 240 246 251 260 261 256 257 263
216 206 197 201 212 188 175 194 233 262 254 239 240 230 221 203 177 149 151 156 204 226 185 174 206 256 281 272 258 244 240 242 248 256 256 251 256 261
221 221 217 213 210 194 189 193 217 236 237 251 253 250 221 199 186 183 182 182 185 216 204 175 184 156 280 274 260 248 239 244 248 250 251 251 249 234
219 225 225 221 216 212 204 204 224 221 210 212 226 239 227 211 208 198 192 188 191 216 197 173 180 181 200 263 284 255 229 231 239 245 246 251 245 223
222 227 223 220 217 215 212 226 227 202 177 190 212 228 228 230 228 215 211 213 212 212 195 180 184 189 191 228 262 264 253 238 230 240 235 249 249 240
225 225 222 217 215 215 220 221 211 193 184 209 225 235 234 229 215 212 218 225 238 237 207 199 191 189 191 213 231 236 257 255 227 225 233 236 233 226
232 231 221 214 204 209 214 217 210 203 202 216 230 243 241 221 213 208 211 205 220 257 240 225 210 191 204 220 218 233 227 226 228 231 234 241 235 222
193 176 177 187 204 216 221 227 221 214 221 224 226 236 238 230 229 215 200 196 211 231 244 245 231 226 222 208 220 230 231 241 231 219 219 247 251 236
176 195 209 211 216 220 225 233 231 228 225 223 225 228 232 230 230 223 208 205 221 228 229 219 188 24 330 277 222 220 226 235 235 217 208 229 256 250
193 213 218 220 222 223 225 227 231 234 227 222 227 231 236 233 228 225 221 221 229 232 230 210 198 198 233 264 259 217 216 228 217 222 224 225 241 249
212 218 223 223 222 223 224 229 234 229 224 227 229 232 231 229 230 228 225 227 231 231 230 218 214 214 224 235 238 250 226 216 215 224 235 249 260 264
222 227 229 228 227 226 229 230 229 227 228 227 229 233 231 228 233 232 229 233 229 230 233 234 232 228 227 189 236 252 246 227 225 223 215 220 252 254
226 229 232 231 232 231 229 228 229 232 231 231 234 235 231 227 231 234 232 233 231 233 239 239 216 200 204 220 240 247 253 262 255 245 231 219 207 216
230 231 232 233 235 233 229 228 230 235 233 234 237 237 231 229 231 232 234 234 236 236 236 232 217 212 221 226 238 247 249 255 256 264 273 266 254 256
Height
1521 1521 1521 1521 1522 1522 1522 1522 1523 1522 1523 1523 1523 1523 1524 1524 1524 1524 1523 1522 1522 1521 1520 1519 1518 1517 1517 1516 1515 1514 1513 1512 1512 1511 1510 1509 1509 1509
1520 1520 1520 1520 1520 1520 1521 1521 1521 1521 1521 1521 1522 1522 1522 1523 1523 1523 1522 1522 1521 1521 1520 1519 1518 1517 1516 1516 1515 1514 1513 1512 1511 1511 1510 1510 1509 1509
1518 1518 1518 1519 1519 1519 1519 1519 1519 1519 1519 1519 1520 1521 1521 1521 1522 1522 1522 1521 1521 1520 1519 1518 1518 1517 1516 1515 1514 1513 1513 1512 1511 1511 1510 1510 1509 1509
1516 1516 1517 1517 1517 1517 1517 1517 1517 1517 1518 1517 1518 1518 1519 1520 1520 1520 1520 1520 1520 1519 1518 1518 1517 1516 1515 1514 1514 1513 1512 1511 1511 1511 1510 1510 1509 1509
1514 1514 1514 1514 1515 1515 1515 1515 1515 1516 1516 1516 1516 1516 1517 1517 1518 1518 1518 1518 1518 1518 1517 1517 1516 1516 1515 1514 1513 1512 1512 1511 1511 1510 1510 1510 1509 1509
1511 1512 1512 1512 1512 1512 1513 1513 1513 1514 1514 1514 1514 1514 1514 1515 1516 1516 1516 1517 1516 1516 1516 1516 1515 1514 1514 1513 1512 1511 1511 1510 1510 1510 1509 1509 1509 1509
1509 1509 1509 1509 1510 1510 1510 1510 1511 1511 1511 1511 1511 1511 1512 1512 1513 1513 1514 1514 1514 1514 1514 1514 1513 1513 1512 1512 1511 1510 1510 1509 1509 1509 1508 1508 1508 1507
1505 1506 1506 1506 1506 1507 1507 1508 1508 1508 1508 1509 1509 1509 1509 1510 1510 1511 1511 1511 1511 1512 1512 1512 1512 1511 1510 1510 1509 1509 1508 1508 1508 1507 1507 1506 1506 1505
1501 1502 1502 1503 1503 1503 1504 1504 1505 1505 1506 1506 1506 1506 1506 1507 1507 1508 1508 1508 1509 1509 1509 1509 1509 1508 1509 1508 1507 1507 1506 1506 1506 1505 1505 1504 1504 1503
1497 1498 1499 1499 1500 1500 1500 1500 1501 1502 1502 1503 1503 1503 1504 1504 1505 1505 1505 1506 1507 1507 1507 1506 1506 1506 1506 1505 1505 1505 1504 1504 1503 1503 1502 1502 1501 1501
1493 1494 1495 1495 1496 1496 1496 1497 1497 1498 1499 1499 1500 1500 1500 1501 1501 1501 1502 1502 1502 1503 1503 1503 1503 1503 1503 1502 1502 1502 1502 1501 1501 1500 1500 1499 1498 1498
1489 1490 1491 1491 1492 1492 1492 1493 1493 1493 1494 1495 1495 1496 1496 1497 1497 1498 1498 1499 1499 1499 1500 1500 1500 1500 1499 1499 1499 1499 1498 1498 1498 1497 1496 1496 1495 1495
1484 1485 1486 1487 1488 1489 1489 1489 1490 1490 1490 1491 1491 1491 1492 1492 1493 1494 1494 1495 1495 1495 1496 1496 1496 1496 1496 1495 1495 1495 1495 1494 1494 1493 1493 1492 1492 1491
1480 1481 1482 1483 1484 1485 1485 1486 1486 1487 1487 1487 1487 1487 1488 1488 1489 1490 1490 1491 1492 1492 1493 1493 1492 1492 1492 1491 1491 1491 1491 1491 1490 1489 1489 1488 1488 1488
1476 1477 1478 1479 1480 1480 1481 1482 1482 1482 1482 1482 1482 1483 1484 1485 1485 1485 1486 1487 1487 1488 1488 1488 1488 1488 1488 1487 1487 1487 1486 1486 1486 1486 1485 1485 1484 1483
1472 1473 1474 1475 1475 1476 1477 1477 1477 1478 1478 1478 1478 1479 1480 1480 1480 1480 1481 1481 1482 1483 1484 1484 1484 1484 1483 1483 1483 1482 1482 1482 1481 1481 1481 1480 1480 1479
1468 1468 1469 1470 1470 1470 1471 1472 1472 1473 1473 1473 1474 1474 1474 1475 1475 1476 1476 1476 1477 1477 1478 1479 1479 1480 1479 1479 1478 1478 1477 1477 1477 1477 1476 1475 1475 1474
1463 1463 1463 1464 1464 1465 1466 1466 1467 1467 1468 1468 1469 1469 1469 1470 1470 1471 1471 1471 1471 1472 1473 1473 1473 1473 1474 1473 1474 1472 1473 1472 1472 1472 1471 1470 1469 1470
1458 1458 1458 1459 1459 1460 1460 1461 1461 1462 1463 1463 1463 1463 1464 1464 1465 1465 1465 1466 1466 1467 1467 1468 1468 1468 1467 1466 1466 1468 1468 1467 1467 1466 1465 1465 1464 1464
1452 1452 1453 1453 1454 1454 1455 1455 1456 1456 1457 1457 1458 1458 1458 1459 1459 1460 1460 1460 1461 1461 1462 1462 1462 1462 1462 1462 1461 1461 1463 1462 1461 1460 1460 1459 1459 1459
1446 1447 1447 1448 1448 1448 1449 1450 1450 1450 1451 1451 1452 1452 1453 1453 1453 1454 1454 1455 1455 1455 1455 1455 1456 1457 1458 1457 1456 1455 1456 1457 1456 1455 1455 1454 1453 1452
1441 1441 1441 1442 1442 1443 1443 1444 1444 1444 1445 1445 1445 1446 1446 1447 1447 1448 1448 1449 1449 1449 1449 1450 1451 1451 1451 1450 1449 1449 1449 1450 1450 1450 1450 1449 1448 1446
1435 1435 1436 1436 1436 1437 1437 1437 1438 1438 1438 1439 1439 1440 1440 1440 1441 1441 1442 1442 1443 1443 1443 1443 1444 1444 1444 1444 1443 1443 1443 1443 1443 1443 1443 1443 1443 1442